Muscle Shoals, AL

7:22 PM CDT on March 30, 2017 (GMT -0500)
Northwest Alabama Regional

Weather History for KMSL - November, 2013

Change the Weather History Date:

Sunday, November 17, 2013

  Actual Average Record
Temperature  
Mean Temperature 66 °F 52 °F  
Max Temperature 72 °F 63 °F 82 °F (2016)
Min Temperature 59 °F 41 °F 12 °F (1940)
Degree Days  
Heating Degree Days 0 14  
Month to date heating degree days 207 189  
Since 1 July heating degree days 337 357  
Cooling Degree Days 1 0  
Month to date cooling degree days 1 4  
Year to date cooling degree days 1895 1868  
Growing Degree Days 16 (Base 50)    
Moisture  
Dew Point 63 °F    
Average Humidity 83    
Maximum Humidity 87    
Minimum Humidity 78    
Precipitation  
Precipitation 0.44 in 0.16 in 1.92 in (1918)
Month to date precipitation 1.38 2.33  
Year to date precipitation 48.54 45.19  
Snow  
Snow 0.00 in - - ()
Month to date snowfall 0.0  
Since 1 July snowfall 0.0  
Since 1 September snowfall 0.0  
Snow Depth 0.00 in    
Sea Level Pressure  
Sea Level Pressure 29.89 in    
Wind  
Wind Speed 9 mph (SSW)    
Max Wind Speed 24 mph    
Max Gust Speed 32 mph    
Visibility 8 miles    
Events Rain    
T = Trace of Precipitation, MM = Missing Value Source: NWS Daily Summary

Daily Weather History Graph

Daily Weather History Graph

Search for Another Location

Airport or City:

Trip Planner

Search our weather history database for the weather conditions in past years. The results will help you decide how hot, cold, wet, or windy it might be!

Date:

Astronomy

Nov. 17, 2013 Rise Set
Actual Time 6:26 AM CST 4:44 PM CST
Civil Twilight 5:59 AM CST 5:10 PM CST
Nautical Twilight 5:29 AM CST 5:41 PM CST
Astronomical Twilight 4:59 AM CST 6:11 PM CST
Moon 5:00 PM CST (11/17) 6:20 AM CST (11/17)
Length of Visible Light 11h 11m
Length of Day
10h 17m
Full, 100% of the Moon is Illuminated
Nov 17
Full
Nov 25
Last Quarter
Dec 2
New
Dec 9
First Quarter
Dec 17
Full

Hourly Weather History & Observations

Time (CST) Temp. Dew Point Humidity Pressure Visibility Wind Dir Wind Speed Gust Speed Precip Events Conditions
12:53 AM 64.0 °F 57.9 °F 80% 29.99 in 10.0 mi SSE 15.0 mph - N/A   Overcast
1:53 AM 64.0 °F 57.9 °F 80% 29.98 in 10.0 mi SSE 8.1 mph - N/A   Overcast
2:18 AM 64.4 °F 57.2 °F 77% 29.98 in 10.0 mi SSE 9.2 mph - N/A   Overcast
2:53 AM 64.9 °F 57.9 °F 78% 29.96 in 10.0 mi SSE 10.4 mph - N/A   Overcast
3:53 AM 64.9 °F 59.0 °F 81% 29.95 in 10.0 mi South 9.2 mph 17.3 mph N/A   Overcast
4:53 AM 66.0 °F 60.1 °F 81% 29.94 in 10.0 mi South 10.4 mph 16.1 mph N/A   Overcast
5:53 AM 66.0 °F 60.1 °F 81% 29.91 in 10.0 mi South 9.2 mph - N/A   Overcast
6:53 AM 66.0 °F 61.0 °F 84% 29.91 in 9.0 mi South 9.2 mph - N/A   Overcast
7:53 AM 66.0 °F 61.0 °F 84% 29.92 in 10.0 mi South 10.4 mph 18.4 mph N/A   Overcast
8:07 AM 66.2 °F 60.8 °F 83% 29.94 in 10.0 mi South 11.5 mph - N/A   Overcast
8:53 AM 66.0 °F 62.1 °F 87% 29.92 in 5.0 mi South 8.1 mph - 0.01 in Rain Light Rain
9:53 AM 66.0 °F 63.0 °F 90% 29.92 in 3.0 mi South 9.2 mph - 0.13 in Rain Rain
10:03 AM 66.2 °F 62.6 °F 88% 29.93 in 1.8 mi South 9.2 mph - 0.06 in Rain Heavy Rain
10:15 AM 66.2 °F 62.6 °F 88% 29.91 in 2.5 mi SSE 13.8 mph - 0.15 in Rain Light Rain
10:23 AM 66.2 °F 62.6 °F 88% 29.91 in 10.0 mi SSE 13.8 mph - 0.15 in Rain Light Rain
10:34 AM 66.2 °F 62.6 °F 88% 29.91 in 10.0 mi South 8.1 mph 17.3 mph 0.15 in Rain Light Rain
10:42 AM 66.2 °F 62.6 °F 88% 29.91 in 8.0 mi South 10.4 mph - 0.16 in Rain Light Rain
10:53 AM 66.9 °F 63.0 °F 87% 29.88 in 6.0 mi South 10.4 mph - 0.16 in Rain Light Rain
11:03 AM 66.2 °F 62.6 °F 88% 29.89 in 7.0 mi South 9.2 mph - 0.01 in Rain Light Rain
11:14 AM 68.0 °F 64.4 °F 88% 29.88 in 3.0 mi South 12.7 mph - 0.02 in Rain Rain
11:25 AM 68.0 °F 64.4 °F 88% 29.88 in 4.0 mi South 11.5 mph - 0.05 in Rain Light Rain
11:53 AM 68.0 °F 64.9 °F 90% 29.86 in 6.0 mi South 11.5 mph - 0.09 in Rain Light Rain
12:00 PM 69.8 °F 64.4 °F 83% 29.87 in 10.0 mi SSW 12.7 mph - 0.00 in   Overcast
12:08 PM 68.0 °F 64.4 °F 88% 29.86 in 10.0 mi South 10.4 mph 20.7 mph 0.00 in   Overcast
12:19 PM 69.8 °F 64.4 °F 83% 29.85 in 6.0 mi South 10.4 mph - 0.00 in Rain Light Rain
12:49 PM 69.8 °F 64.4 °F 83% 29.84 in 10.0 mi South 13.8 mph 19.6 mph 0.01 in   Overcast
12:53 PM 69.1 °F 64.9 °F 87% 29.82 in 10.0 mi South 11.5 mph - 0.01 in   Overcast
1:19 PM 69.8 °F 64.4 °F 83% 29.83 in 8.0 mi South 11.5 mph - 0.00 in Rain Light Rain
1:53 PM 69.1 °F 64.9 °F 87% 29.81 in 6.0 mi SSW 10.4 mph - 0.01 in Rain Light Rain
2:53 PM 70.0 °F 66.0 °F 87% 29.81 in 4.0 mi SSW 11.5 mph - 0.01 in Rain Light Rain
3:39 PM 71.6 °F 66.2 °F 83% 29.83 in 10.0 mi SSW 10.4 mph - 0.01 in   Overcast
3:53 PM 71.1 °F 66.9 °F 87% 29.82 in 9.0 mi SSW 10.4 mph - 0.01 in   Overcast
4:08 PM 71.6 °F 66.2 °F 83% 29.84 in 10.0 mi SSW 10.4 mph - 0.00 in   Overcast
4:37 PM 71.6 °F 66.2 °F 83% 29.84 in 10.0 mi SSW 10.4 mph - 0.00 in   Overcast
4:53 PM 71.1 °F 66.9 °F 87% 29.83 in 10.0 mi SW 10.4 mph - 0.00 in   Overcast
5:53 PM 71.1 °F 66.9 °F 87% 29.84 in 10.0 mi SSW 9.2 mph - N/A   Overcast
6:21 PM 71.6 °F 66.2 °F 83% 29.86 in 10.0 mi SSW 8.1 mph - N/A   Overcast
6:53 PM 72.0 °F 66.9 °F 84% 29.86 in 10.0 mi SW 11.5 mph - N/A   Overcast
7:24 PM 71.6 °F 66.2 °F 83% 29.87 in 10.0 mi SW 10.4 mph - N/A   Mostly Cloudy
7:53 PM 72.0 °F 66.9 °F 84% 29.87 in 10.0 mi SW 10.4 mph - N/A   Scattered Clouds
8:28 PM 71.6 °F 66.2 °F 83% 29.89 in 10.0 mi WSW 11.5 mph - N/A   Mostly Cloudy
8:53 PM 72.0 °F 66.9 °F 84% 29.89 in 10.0 mi WSW 11.5 mph - N/A   Mostly Cloudy
9:24 PM 71.6 °F 66.2 °F 83% 29.91 in 10.0 mi WSW 9.2 mph - N/A   Scattered Clouds
9:53 PM 71.1 °F 66.0 °F 84% 29.91 in 10.0 mi WSW 6.9 mph - N/A   Partly Cloudy
10:13 PM 64.4 °F 51.8 °F 64% 29.97 in 9.0 mi NNW 21.9 mph 32.2 mph N/A   Mostly Cloudy
10:26 PM 59.0 °F 51.8 °F 77% 29.96 in 4.0 mi NNW 6.9 mph - 0.00 in Rain Rain
10:53 PM 60.1 °F 53.1 °F 78% 29.95 in 10.0 mi Calm Calm - 0.01 in   Overcast
11:53 PM 60.1 °F 54.0 °F 80% 29.99 in 10.0 mi WSW 3.5 mph - 0.00 in   Overcast